FW2458 Weather Reports


Display with metric or nautical units.
time (UTC)temp
F
wind
direction
speed
MPH
gust
MPH
rain 1hr
in
rain 24hr
in
rain mn
in
humidity
%
barometer
mb
20260508195914 60 207 1.0 5.0 0.00 0.03 0.03 52 1011.3
20260508195412 60 207 1.0 5.0 0.00 0.03 0.03 52 1011.1
20260508194911 60 190 1.0 4.0 0.00 0.03 0.03 51 1011.2
20260508194410 60 188 0.0 4.0 0.00 0.03 0.03 50 1011.2
20260508193912 60 184 0.0 6.0 0.00 0.03 0.03 53 1011.2
20260508193632 60 184 1.0 6.0 0.00 0.03 0.03 50 1011.2
20260508192908 60 57 2.0 6.0 0.00 0.03 0.03 53 1011.2
20260508192408 60 72 2.0 7.0 0.00 0.03 0.03 52 1011.2
20260508191910 60 141 1.0 7.0 0.00 0.03 0.03 51 1011.2
20260508191410 60 30 2.0 8.0 0.00 0.03 0.03 50 1011.5
20260508190908 61 80 2.0 8.0 0.00 0.03 0.03 51 1011.4
20260508190408 61 61 2.0 8.0 0.00 0.03 0.03 50 1011.2
20260508185908 61 197 2.0 8.0 0.00 0.03 0.03 49 1011.2
20260508185409 61 130 2.0 5.0 0.00 0.03 0.03 55 1011.5
20260508184908 60 147 1.0 5.0 0.00 0.03 0.03 52 1011.6
20260508184406 60 155 1.0 6.0 0.00 0.03 0.03 52 1011.6
20260508183907 59 210 1.0 6.0 0.00 0.03 0.03 51 1011.5
20260508183403 59 210 2.0 6.0 0.00 0.03 0.03 50 1011.4
20260508182904 59 189 2.0 7.0 0.00 0.03 0.03 48 1011.6
20260508182402 60 124 1.0 7.0 0.00 0.03 0.03 49 1011.5
20260508181903 60 72 2.0 7.0 0.00 0.03 0.03 48 1011.4
20260508181622 60 190 2.0 10.0 0.00 0.03 0.03 47 1011.3
20260508180902 61 218 2.0 10.0 0.00 0.03 0.03 47 1011.2
20260508180402 61 130 2.0 10.0 0.00 0.03 0.03 48 1011.3
20260508175904 62 170 2.0 10.0 0.00 0.03 0.03 46 1011.4
20260508175358 62 138 2.0 8.0 0.00 0.03 0.03 49 1011.5
20260508174859 61 149 2.0 8.0 0.00 0.03 0.03 49 1011.4
20260508174358 61 55 3.0 8.0 0.00 0.03 0.03 48 1011.4
20260508173856 61 181 3.0 10.0 0.00 0.03 0.03 48 1011.4
20260508173356 61 188 3.0 10.0 0.00 0.03 0.03 46 1011.5
20260508172859 61 57 2.0 9.0 0.00 0.03 0.03 52 1011.5
20260508172358 60 179 2.0 9.0 0.00 0.03 0.03 48 1011.6
20260508171856 60 71 3.0 9.0 0.00 0.03 0.03 47 1011.6
20260508171617 61 209 3.0 9.0 0.00 0.03 0.03 48 1011.5
20260508170857 62 214 2.0 6.0 0.00 0.03 0.03 47 1011.5
20260508170840 62 136 3.0 8.0 0.00 0.03 0.03 49 1011.6
20260508170115 61 178 3.0 12.0 0.00 0.03 0.03 49 1011.6
20260508165335 61 217 2.0 12.0 0.00 0.03 0.03 45 1011.7
20260508164828 61 281 2.0 7.0 0.00 0.03 0.03 51 1011.8
20260508164329 61 38 2.0 12.0 0.00 0.03 0.03 50 1011.8
20260508163828 61 218 2.0 12.0 0.00 0.03 0.03 51 1012.0
20260508163328 60 204 3.0 13.0 0.00 0.03 0.03 52 1012.1
20260508162829 60 35 3.0 13.0 0.00 0.03 0.03 51 1012.2
20260508162328 60 300 3.0 10.0 0.00 0.03 0.03 50 1012.4
20260508161829 60 215 2.0 10.0 0.00 0.03 0.03 49 1012.3
20260508161329 59 201 2.0 8.0 0.00 0.03 0.03 51 1012.3
20260508160826 59 207 2.0 6.0 0.00 0.03 0.03 50 1012.4
20260508160326 59 193 2.0 6.0 0.00 0.03 0.03 50 1012.4
20260508160052 59 209 3.0 8.0 0.00 0.03 0.03 52 1012.4
20260508155325 58 222 3.0 8.0 0.00 0.03 0.03 50 1012.3
20260508154827 58 204 2.0 8.0 0.00 0.03 0.03 52 1012.5
20260508154811 58 22 2.0 8.0 0.00 0.03 0.03 50 1012.8
20260508154309 58 82 2.0 8.0 0.00 0.03 0.03 50 1012.8
20260508153321 58 198 2.0 8.0 0.00 0.03 0.03 49 1012.7
20260508152813 58 57 2.0 8.0 0.00 0.03 0.03 49 1012.7
20260508152306 58 134 2.0 9.0 0.00 0.03 0.03 49 1012.7
20260508151757 59 196 2.0 9.0 0.00 0.03 0.03 47 1012.8
20260508151250 60 229 2.0 7.0 0.00 0.03 0.03 49 1012.6
20260508150740 60 177 3.0 7.0 0.00 0.03 0.03 50 1012.5
20260508150235 60 227 2.0 6.0 0.00 0.03 0.03 49 1012.4
20260508145727 60 227 2.0 6.0 0.00 0.03 0.03 49 1012.4
20260508145440 60 64 2.0 5.0 0.00 0.03 0.03 47 1012.4
20260508144938 59 229 2.0 4.0 0.00 0.03 0.03 52 1012.4
20260508144205 59 209 2.0 7.0 0.00 0.03 0.03 52 1012.5
20260508143918 58 128 2.0 7.0 0.00 0.03 0.03 50 1012.5
20260508143416 58 218 2.0 7.0 0.00 0.03 0.03 52 1012.4
20260508142644 57 213 2.0 7.0 0.00 0.03 0.03 52 1012.5
20260508142147 57 77 2.0 5.0 0.00 0.03 0.03 50 1012.6
20260508141900 58 53 2.0 5.0 0.00 0.03 0.03 53 1012.5
20260508141121 58 212 2.0 5.0 0.00 0.03 0.03 51 1012.4
20260508141045 58 26 2.0 5.0 0.00 0.03 0.03 52 1012.4
20260508140111 58 132 2.0 8.0 0.00 0.03 0.03 55 1012.6
20260508135600 57 225 2.0 8.0 0.00 0.03 0.03 53 1012.7
20260508135050 57 193 2.0 8.0 0.00 0.03 0.03 57 1012.7
20260508134544 57 213 2.0 8.0 0.00 0.03 0.03 54 1012.7
20260508134038 57 227 2.0 8.0 0.00 0.03 0.03 57 1012.8
20260508133528 56 229 2.0 8.0 0.00 0.03 0.03 59 1012.8
20260508133021 56 74 2.0 8.0 0.00 0.03 0.03 58 1012.8
20260508132740 56 158 1.0 5.0 0.00 0.03 0.03 58 1012.8
20260508132006 56 213 1.0 6.0 0.00 0.03 0.03 59 1012.7
20260508131941 56 76 1.0 6.0 0.00 0.03 0.03 61 1012.7
20260508130954 55 53 2.0 6.0 0.00 0.03 0.03 62 1012.7
20260508130444 55 122 2.0 6.0 0.00 0.03 0.03 62 1012.7
20260508125939 55 193 1.0 3.0 0.00 0.03 0.03 64 1012.7
20260508125432 55 154 1.0 4.0 0.00 0.03 0.03 66 1012.7
20260508124922 54 170 1.0 5.0 0.00 0.03 0.03 67 1012.7
20260508124416 54 198 2.0 5.0 0.00 0.03 0.03 65 1012.7
20260508124130 53 80 1.0 5.0 0.00 0.03 0.03 68 1012.7
20260508123622 53 146 1.0 5.0 0.00 0.03 0.03 70 1012.7
20260508123117 53 174 1.0 5.0 0.00 0.03 0.03 70 1012.7
20260508122356 52 219 1.0 5.0 0.00 0.03 0.03 71 1012.9
20260508121855 52 232 1.0 5.0 0.00 0.03 0.03 73 1012.8
20260508121356 51 142 1.0 4.0 0.00 0.03 0.03 76 1012.8
20260508120857 50 211 1.0 4.0 0.00 0.03 0.03 77 1012.7
20260508120706 49 201 1.0 4.0 0.00 0.03 0.03 80 1012.8
20260508120639 49 132 1.0 4.0 0.00 0.03 0.03 84 1012.9
20260508115355 47 151 1.0 4.0 0.00 0.03 0.03 86 1012.8
20260508115344 47 194 1.0 4.0 0.00 0.03 0.03 88 1012.8
20260508114355 46 187 1.0 3.0 0.00 0.03 0.03 89 1012.7
20260508113853 45 187 1.0 7.0 0.00 0.03 0.03 90 1012.7
20260508113352 44 206 0.0 7.0 0.00 0.03 0.03 91 1012.7
20260508112850 44 212 0.0 7.0 0.00 0.03 0.03 92 1012.8
20260508112351 44 212 0.0 7.0 0.00 0.03 0.03 92 1012.7
20260508111850 43 153 0.0 0.0 0.00 0.03 0.03 92 1012.7
20260508111608 43 153 0.0 0.0 0.00 0.03 0.03 92 1012.6
20260508110839 43 153 0.0 0.0 0.00 0.03 0.03 92 1012.6
20260508110337 42 153 0.0 0.0 0.00 0.03 0.03 92 1012.5
20260508110107 42 153 0.0 0.0 0.00 0.03 0.03 92 1012.6
20260508105335 42 153 0.0 0.0 0.00 0.03 0.03 92 1012.6
20260508104835 42 153 0.0 0.0 0.00 0.03 0.03 91 1012.4
20260508104334 42 153 0.0 0.0 0.00 0.03 0.03 91 1012.4
20260508104052 42 153 0.0 0.0 0.00 0.03 0.03 91 1012.5
20260508103332 42 153 0.0 0.0 0.00 0.03 0.03 91 1012.5
20260508102833 42 153 0.0 0.0 0.00 0.03 0.03 91 1012.4
20260508102330 42 153 0.0 0.0 0.00 0.03 0.03 91 1012.3
20260508101827 42 153 0.0 0.0 0.00 0.03 0.03 90 1012.2
20260508101326 42 153 0.0 0.0 0.00 0.03 0.03 90 1012.2
20260508101049 42 153 0.0 0.0 0.00 0.03 0.03 90 1012.1
20260508100328 42 153 0.0 0.0 0.00 0.03 0.03 90 1012.0
20260508095824 42 153 0.0 2.0 0.00 0.03 0.03 90 1012.1
20260508095322 43 153 0.0 2.0 0.00 0.03 0.03 90 1012.1
20260508094820 43 153 0.0 2.0 0.00 0.03 0.03 90 1011.9
20260508094314 43 153 0.0 2.0 0.00 0.03 0.03 90 1012.0
20260508093815 43 153 0.0 2.0 0.00 0.03 0.03 90 1012.0
20260508093313 43 121 0.0 0.0 0.00 0.03 0.03 89 1012.0
20260508092809 43 121 0.0 0.0 0.00 0.03 0.03 89 1012.0
20260508092535 44 121 0.0 0.0 0.00 0.03 0.03 89 1011.9
20260508091806 44 121 0.0 0.0 0.01 0.03 0.03 89 1011.8
20260508091304 44 121 0.0 0.0 0.01 0.03 0.03 89 1011.8
20260508090802 44 121 0.0 0.0 0.01 0.03 0.03 89 1011.9
20260508090302 44 121 0.0 0.0 0.02 0.03 0.03 89 1011.8
20260508085759 45 121 0.0 0.0 0.02 0.03 0.03 89 1011.8
20260508085300 45 121 0.0 0.0 0.02 0.03 0.03 89 1011.7
20260508084759 45 121 0.0 0.0 0.02 0.03 0.03 88 1011.7
20260508084257 45 121 0.0 0.0 0.02 0.03 0.03 88 1011.7
20260508083758 45 121 0.0 0.0 0.02 0.03 0.03 88 1011.5
20260508083255 45 121 0.0 0.0 0.02 0.03 0.03 88 1011.3
20260508082753 45 121 0.0 0.0 0.02 0.03 0.03 87 1011.4
20260508082251 46 121 0.0 0.0 0.02 0.03 0.03 87 1011.4
20260508082013 46 121 0.0 0.0 0.01 0.02 0.02 87 1011.5
20260508081503 46 121 0.0 0.0 0.01 0.02 0.02 86 1011.4
20260508080956 46 121 0.0 0.0 0.01 0.02 0.02 86 1011.6
20260508080243 46 121 0.0 0.0 0.00 0.01 0.01 85 1011.7
20260508075726 46 121 0.0 0.0 0.00 0.01 0.01 85 1011.8
20260508075226 46 111 0.0 3.0 0.00 0.02 0.01 85 1011.8
20260508074726 46 111 0.0 3.0 0.00 0.02 0.01 85 1011.7
20260508074228 46 111 0.0 3.0 0.00 0.02 0.01 85 1011.6
20260508073725 46 111 0.0 3.0 0.00 0.02 0.01 84 1011.4
20260508073445 46 81 0.0 2.0 0.00 0.02 0.01 84 1011.3
20260508072722 46 61 0.0 1.0 0.00 0.02 0.01 84 1011.4
20260508072704 46 61 0.0 1.0 0.00 0.02 0.01 84 1011.5
20260508071722 46 61 0.0 2.0 0.00 0.03 0.01 84 1011.3
20260508071220 46 61 0.0 2.0 0.00 0.04 0.01 84 1011.3
20260508070943 46 34 0.0 2.0 0.00 0.04 0.01 84 1011.3
20260508070709 46 34 0.0 4.0 0.00 0.04 0.01 84 1011.2
20260508065719 46 34 0.0 4.0 0.01 0.04 0.01 84 1011.3
20260508065219 46 34 0.0 4.0 0.01 0.05 0.01 83 1011.5
20260508064719 46 34 1.0 4.0 0.01 0.05 0.01 83 1011.3
20260508064219 46 143 0.0 2.0 0.01 0.06 0.01 82 1011.3
20260508063720 47 148 0.0 2.0 0.01 0.07 0.01 82 1011.3
20260508063219 47 148 0.0 0.0 0.01 0.09 0.01 82 1011.2
20260508062719 47 148 0.0 0.0 0.01 0.11 0.01 82 1011.4
20260508062219 47 148 0.0 2.0 0.01 0.12 0.01 81 1011.5
20260508061720 47 148 0.0 2.0 0.01 0.12 0.01 80 1011.6
20260508061438 48 148 0.0 2.0 0.01 0.13 0.01 79 1011.7
20260508060720 48 148 0.0 2.0 0.01 0.13 0.01 79 1011.8
20260508060218 48 148 1.0 3.0 0.01 0.14 0.01 78 1012.0
20260508055720 49 148 1.0 6.0 0.00 0.13 0.00 76 1011.9
20260508055221 49 128 1.0 6.0 0.00 0.14 0.00 73 1011.8
20260508054717 49 65 1.0 7.0 0.00 0.14 0.00 73 1011.7
20260508054452 48 155 0.0 7.0 0.00 0.14 0.00 71 1011.5
20260508053718 47 155 0.0 2.0 0.00 0.14 0.00 73 1011.4
20260508053704 47 75 0.0 1.0 0.00 0.14 0.00 76 1011.2
20260508052714 47 75 0.0 1.0 0.00 0.14 0.00 78 1011.0
20260508052212 47 75 0.0 0.0 0.00 0.15 0.00 78 1010.8
20260508051712 47 75 0.0 0.0 0.00 0.16 0.00 77 1010.1
20260508051212 47 75 0.0 0.0 0.00 0.16 0.00 76 1009.3
20260508050927 47 75 0.0 0.0 0.00 0.16 0.00 75 1009.1
20260508050431 48 75 0.0 0.0 0.00 0.17 0.00 75 1009.2
20260508045938 48 75 0.0 0.0 0.00 0.17 0.00 74 1009.3
20260508045205 48 75 0.0 0.0 0.00 0.17 0.00 72 1009.3
20260508044718 48 75 0.0 0.0 0.00 0.17 0.00 71 1009.1
20260508044205 48 75 0.0 0.0 0.00 0.17 0.00 72 1009.1
20260508043702 47 75 0.0 0.0 0.00 0.17 0.00 75 1009.0
20260508043200 47 75 0.0 0.0 0.00 0.17 0.00 76 1009.1
20260508042700 46 75 0.0 0.0 0.00 0.17 0.00 76 1009.2
20260508042151 46 75 0.0 0.0 0.00 0.17 0.00 76 1009.2
20260508041645 46 75 0.0 0.0 0.00 0.17 0.00 75 1009.2
20260508041139 46 75 0.0 0.0 0.00 0.17 0.00 74 1009.3
20260508040629 46 75 0.0 0.0 0.00 0.17 0.00 74 1009.2
20260508040122 46 75 0.0 0.0 0.00 0.17 0.00 73 1009.2
20260508035616 46 75 0.0 0.0 0.00 0.17 0.17 73 1009.2
20260508035556 46 75 0.0 0.0 0.00 0.17 0.17 73 1009.1
20260508034601 47 75 0.0 0.0 0.00 0.17 0.17 73 1009.0
20260508034055 47 75 0.0 0.0 0.00 0.17 0.17 72 1009.1
20260508033545 47 75 0.0 0.0 0.00 0.17 0.17 72 1009.0
20260508033039 47 75 0.0 0.0 0.00 0.17 0.17 73 1009.1
20260508032532 47 75 0.0 0.0 0.00 0.17 0.17 72 1009.3
20260508032028 47 75 0.0 0.0 0.00 0.17 0.17 72 1009.2
20260508031513 46 75 0.0 0.0 0.00 0.17 0.17 72 1009.4
20260508031007 46 75 0.0 0.0 0.00 0.17 0.17 71 1009.4
20260508030509 47 75 0.0 0.0 0.00 0.17 0.17 69 1009.4
20260508025952 47 75 0.0 0.0 0.00 0.17 0.17 69 1009.5
20260508025711 47 75 0.0 0.0 0.00 0.17 0.17 68 1009.4
20260508024936 47 75 0.0 0.0 0.00 0.17 0.17 68 1009.5
20260508024429 47 75 0.0 0.0 0.00 0.17 0.17 68 1009.5
20260508023923 48 75 0.0 0.0 0.00 0.17 0.17 68 1009.5
20260508023639 48 75 0.0 0.0 0.00 0.17 0.17 68 1009.5
20260508022907 48 75 0.0 0.0 0.00 0.17 0.17 67 1009.5
20260508022626 48 75 0.0 0.0 0.00 0.17 0.17 66 1009.5
20260508021850 48 75 0.0 0.0 0.00 0.17 0.17 67 1009.5
20260508021345 48 75 0.0 0.0 0.00 0.17 0.17 67 1009.5
20260508020838 48 75 0.0 0.0 0.00 0.17 0.17 67 1009.4
20260508020329 48 75 0.0 0.0 0.00 0.17 0.17 66 1009.4
20260508015823 49 75 0.0 0.0 0.00 0.17 0.17 66 1009.4
20260508015317 49 75 0.0 0.0 0.00 0.17 0.17 65 1009.3
20260508014807 49 75 0.0 0.0 0.00 0.17 0.17 64 1009.4
20260508014531 49 75 0.0 0.0 0.00 0.17 0.17 64 1009.3
20260508013755 49 75 0.0 0.0 0.00 0.17 0.17 64 1009.3
20260508013245 50 75 0.0 0.0 0.00 0.17 0.17 64 1009.2
20260508013228 50 75 0.0 0.0 0.00 0.17 0.17 64 1009.2
20260508012233 50 75 0.0 0.0 0.00 0.17 0.17 64 1009.3
20260508011723 50 75 0.0 0.0 0.00 0.17 0.17 63 1009.3
20260508011217 50 75 0.0 0.0 0.00 0.17 0.17 62 1009.2
20260508010711 51 75 0.0 0.0 0.00 0.17 0.17 61 1009.3
20260508010202 51 75 0.0 0.0 0.00 0.20 0.17 62 1009.1
20260508005655 51 75 0.0 0.0 0.00 0.20 0.17 62 1008.9
20260508005149 52 75 0.0 0.0 0.00 0.20 0.17 60 1009.0
20260508004639 52 75 0.0 0.0 0.00 0.20 0.17 59 1009.0
20260508004133 53 75 0.0 0.0 0.00 0.20 0.17 58 1008.8
20260508003848 53 75 0.0 0.0 0.00 0.20 0.17 57 1008.7
20260508003117 54 75 0.0 0.0 0.00 0.20 0.17 57 1008.7
20260508002610 54 75 0.0 0.0 0.00 0.20 0.17 56 1008.7
20260508002105 54 75 0.0 0.0 0.00 0.20 0.17 55 1008.6
20260508001555 55 75 0.0 0.0 0.00 0.20 0.17 55 1008.6
20260508001049 55 75 0.0 0.0 0.00 0.20 0.17 52 1008.5
20260508000543 56 75 0.0 0.0 0.00 0.20 0.17 52 1008.6
20260508000032 56 75 0.0 0.0 0.00 0.20 0.17 52 1008.4
20260508000013 57 75 0.0 0.0 0.00 0.20 0.17 51 1008.2
20260507235020 58 75 0.0 0.0 0.00 0.20 0.17 51 1008.2
20260507234511 58 75 0.0 1.0 0.00 0.20 0.17 46 1008.3
20260507234005 58 75 0.0 1.0 0.00 0.20 0.17 45 1008.4
20260507233459 58 75 0.0 1.0 0.00 0.20 0.17 46 1008.4
20260507233211 59 75 0.0 2.0 0.00 0.20 0.17 44 1008.3
20260507232446 59 75 0.0 2.0 0.00 0.20 0.17 43 1008.1
20260507231943 59 75 0.0 2.0 0.00 0.20 0.17 45 1008.0
20260507231442 59 75 1.0 4.0 0.00 0.20 0.17 43 1008.0
20260507230943 60 75 1.0 4.0 0.00 0.20 0.17 43 1008.0
20260507230721 60 75 1.0 8.0 0.00 0.20 0.17 41 1008.0
20260507225943 60 80 1.0 8.0 0.00 0.20 0.17 41 1007.9
20260507225442 60 74 2.0 8.0 0.00 0.20 0.17 42 1008.0
20260507224955 60 39 3.0 8.0 0.00 0.20 0.17 40 1008.0
20260507224446 60 63 2.0 6.0 0.00 0.20 0.17 39 1007.8
20260507223944 60 53 2.0 6.0 0.00 0.20 0.17 38 1007.8
20260507223443 60 29 2.0 6.0 0.00 0.20 0.17 39 1007.9
20260507222940 60 85 2.0 6.0 0.00 0.20 0.17 40 1008.0
20260507222439 60 120 1.0 6.0 0.00 0.20 0.17 40 1008.0
20260507221938 60 94 1.0 3.0 0.00 0.20 0.17 40 1008.0
20260507221440 60 184 1.0 3.0 0.00 0.20 0.17 42 1008.0
20260507220939 60 119 1.0 5.0 0.00 0.20 0.17 39 1007.9
20260507220440 60 71 1.0 5.0 0.00 0.20 0.17 42 1008.1
20260507215941 61 174 2.0 5.0 0.00 0.20 0.17 40 1008.1
20260507215438 61 63 1.0 5.0 0.00 0.20 0.17 38 1008.1
20260507214938 62 206 1.0 5.0 0.00 0.20 0.17 38 1008.2
20260507214657 62 48 2.0 6.0 0.00 0.20 0.17 38 1008.1
20260507213935 62 76 1.0 6.0 0.00 0.20 0.17 39 1007.9
20260507213432 62 63 2.0 6.0 0.00 0.20 0.17 40 1007.9
20260507212932 63 48 2.0 6.0 0.00 0.20 0.17 39 1007.9
20260507212432 63 90 1.0 5.0 0.00 0.20 0.17 38 1007.9
20260507211945 63 162 1.0 4.0 0.00 0.20 0.17 39 1007.9
20260507211432 63 60 1.0 4.0 0.00 0.20 0.17 41 1008.0
20260507211156 62 171 2.0 5.0 0.00 0.20 0.17 39 1007.9
20260507210442 62 168 2.0 6.0 0.00 0.20 0.17 39 1008.0
20260507205930 62 153 2.0 6.0 0.00 0.20 0.17 39 1007.8
20260507205424 62 207 1.0 5.0 0.00 0.20 0.17 39 1007.8
20260507204918 62 20 1.0 10.0 0.00 0.20 0.17 38 1007.9
20260507204420 62 159 1.0 10.0 0.00 0.20 0.17 39 1007.8
20260507203920 62 194 1.0 10.0 0.00 0.20 0.17 39 1007.7
20260507203420 63 162 2.0 10.0 0.00 0.20 0.17 40 1007.7
20260507202917 63 202 2.0 11.0 0.00 0.20 0.17 41 1007.8
20260507202414 63 87 3.0 11.0 0.00 0.20 0.17 38 1007.8
20260507202137 63 78 2.0 10.0 0.00 0.20 0.17 43 1007.8
20260507201414 63 67 2.0 10.0 0.00 0.20 0.17 43 1007.9
20260507200918 62 46 2.0 8.0 0.00 0.20 0.17 43 1007.8
20260507200640 62 217 2.0 6.0 0.00 0.20 0.17 38 1008.0